Time,TemperatureF,DewpointF,PressureIn,WindDirection,WindDirectionDegrees,WindSpeedMPH,WindSpeedGustMPH,Humidity,HourlyPrecipIn,Conditions,Clouds,dailyrainin,SoftwareType,DateUTC
2013-11-17 00:02:00,42.2,38.9,29.32,South,175,6.0,6.0,88,0.00,,,0.00,VWS V14.01,2013-11-17 06:02:00,
2013-11-17 00:07:00,42.2,38.9,29.32,South,186,4.0,6.0,88,0.00,,,0.00,VWS V14.01,2013-11-17 06:07:00,
2013-11-17 00:13:00,42.1,38.8,29.32,South,174,3.0,10.0,88,0.00,,,0.00,VWS V14.01,2013-11-17 06:13:00,
2013-11-17 00:18:00,42.2,38.9,29.32,South,176,5.0,13.0,88,0.00,,,0.00,VWS V14.01,2013-11-17 06:18:00,
2013-11-17 00:23:00,42.2,38.9,29.32,South,172,6.0,14.0,88,0.00,,,0.00,VWS V14.01,2013-11-17 06:23:00,
2013-11-17 00:28:00,42.2,38.9,29.32,SSW,195,4.0,14.0,88,0.00,,,0.00,VWS V14.01,2013-11-17 06:28:00,
2013-11-17 00:30:00,40.8,36.3,29.32,South,191,3.0,10.0,84,0.00,,,0.00,VWS V15.00,2013-11-17 06:30:00,
2013-11-17 00:33:00,42.2,38.6,29.32,South,173,3.0,8.0,87,0.00,,,0.00,VWS V14.01,2013-11-17 06:33:00,
2013-11-17 00:38:00,42.1,38.5,29.31,WSW,254,8.0,11.0,87,0.00,,,0.00,VWS V14.01,2013-11-17 06:38:00,
2013-11-17 00:43:00,42.0,38.1,29.31,South,181,6.0,11.0,86,0.00,,,0.00,VWS V14.01,2013-11-17 06:43:00,
2013-11-17 00:48:00,41.9,38.0,29.31,South,177,7.0,11.0,86,0.00,,,0.00,VWS V14.01,2013-11-17 06:48:00,
2013-11-17 00:53:00,41.9,37.7,29.31,South,180,9.0,12.0,85,0.00,,,0.00,VWS V14.01,2013-11-17 06:53:00,
2013-11-17 00:58:00,41.8,37.6,29.31,SSW,193,9.0,12.0,85,0.00,,,0.00,VWS V14.01,2013-11-17 06:58:00,
2013-11-17 01:03:00,41.7,37.5,29.31,SSW,192,6.0,10.0,85,0.00,,,0.00,VWS V14.01,2013-11-17 07:03:00,
2013-11-17 01:09:00,41.6,37.1,29.30,WSW,254,0.0,10.0,84,0.00,,,0.00,VWS V14.01,2013-11-17 07:09:00,
2013-11-17 01:14:00,41.4,36.9,29.30,SSW,198,4.0,10.0,84,0.00,,,0.00,VWS V14.01,2013-11-17 07:14:00,
2013-11-17 01:19:00,41.3,36.8,29.30,SSW,194,4.0,10.0,84,0.00,,,0.00,VWS V14.01,2013-11-17 07:19:00,
2013-11-17 01:24:00,41.1,36.6,29.31,SSW,196,5.0,10.0,84,0.00,,,0.00,VWS V14.01,2013-11-17 07:24:00,
2013-11-17 01:29:00,40.9,36.5,29.32,South,189,3.0,10.0,84,0.00,,,0.00,VWS V14.01,2013-11-17 07:29:00,
2013-11-17 01:30:00,39.1,35.0,29.31,South,183,2.0,7.0,85,0.00,,,0.00,VWS V15.00,2013-11-17 07:30:00,
2013-11-17 01:34:00,40.7,36.2,29.32,South,191,5.0,5.0,84,0.00,,,0.00,VWS V14.01,2013-11-17 07:34:00,
2013-11-17 01:39:00,40.6,36.5,29.31,South,180,3.0,6.0,85,0.00,,,0.00,VWS V14.01,2013-11-17 07:39:00,
2013-11-17 01:44:00,40.4,36.0,29.31,South,181,3.0,6.0,84,0.00,,,0.00,VWS V14.01,2013-11-17 07:44:00,
2013-11-17 01:49:00,40.3,36.2,29.31,South,187,4.0,6.0,85,0.00,,,0.00,VWS V14.01,2013-11-17 07:49:00,
2013-11-17 01:54:00,40.2,36.1,29.31,South,184,3.0,7.0,85,0.00,,,0.00,VWS V14.01,2013-11-17 07:54:00,
2013-11-17 01:59:00,40.1,36.0,29.31,South,183,3.0,7.0,85,0.00,,,0.00,VWS V14.01,2013-11-17 07:59:00,
2013-11-17 02:04:00,39.9,35.8,29.31,South,183,4.0,5.0,85,0.00,,,0.00,VWS V14.01,2013-11-17 08:04:00,
2013-11-17 02:09:00,39.8,35.7,29.32,South,183,5.0,7.0,85,0.00,,,0.00,VWS V14.01,2013-11-17 08:09:00,
2013-11-17 02:14:00,39.7,35.6,29.31,South,184,0.0,7.0,85,0.00,,,0.00,VWS V14.01,2013-11-17 08:14:00,
2013-11-17 02:19:00,39.6,35.5,29.32,South,184,0.0,7.0,85,0.00,,,0.00,VWS V14.01,2013-11-17 08:19:00,
2013-11-17 02:24:00,39.4,35.3,29.31,South,183,0.0,7.0,85,0.00,,,0.00,VWS V14.01,2013-11-17 08:24:00,
2013-11-17 02:29:00,39.2,35.1,29.31,South,184,0.0,7.0,85,0.00,,,0.00,VWS V14.01,2013-11-17 08:29:00,
2013-11-17 02:34:00,39.1,35.3,29.31,South,187,5.0,6.0,86,0.00,,,0.00,VWS V14.01,2013-11-17 08:34:00,
2013-11-17 02:39:00,39.2,35.4,29.32,South,186,3.0,6.0,86,0.00,,,0.00,VWS V14.01,2013-11-17 08:39:00,
2013-11-17 02:44:00,39.3,35.5,29.32,SSW,194,4.0,6.0,86,0.00,,,0.00,VWS V14.01,2013-11-17 08:44:00,
2013-11-17 02:49:00,39.4,35.9,29.31,SSW,201,0.0,6.0,87,0.00,,,0.00,VWS V14.01,2013-11-17 08:49:00,
2013-11-17 02:54:00,39.4,35.9,29.30,SSW,200,0.0,6.0,87,0.00,,,0.00,VWS V14.01,2013-11-17 08:54:00,
2013-11-17 02:59:00,39.5,36.0,29.31,SSW,200,2.0,6.0,87,0.00,,,0.00,VWS V14.01,2013-11-17 08:59:00,
2013-11-17 03:05:00,39.5,36.0,29.31,SSW,200,2.0,5.0,87,0.00,,,0.00,VWS V14.01,2013-11-17 09:05:00,
2013-11-17 03:10:00,39.6,36.1,29.31,SSW,200,2.0,5.0,87,0.00,,,0.00,VWS V14.01,2013-11-17 09:10:00,
2013-11-17 03:15:00,39.7,36.2,29.31,SSW,201,2.0,5.0,87,0.00,,,0.00,VWS V14.01,2013-11-17 09:15:00,
2013-11-17 03:20:00,39.8,36.2,29.31,SSW,200,0.0,5.0,87,0.00,,,0.00,VWS V14.01,2013-11-17 09:20:00,
2013-11-17 03:25:00,39.9,36.3,29.31,SSW,200,3.0,5.0,87,0.00,,,0.00,VWS V14.01,2013-11-17 09:25:00,
2013-11-17 03:30:00,40.0,36.5,29.32,SSW,194,10.0,10.0,87,0.00,,,0.00,VWS V14.01,2013-11-17 09:30:00,
2013-11-17 03:35:00,40.2,36.7,29.33,South,177,2.0,9.0,87,0.00,,,0.00,VWS V14.01,2013-11-17 09:35:00,
2013-11-17 03:40:00,40.3,37.0,29.33,South,185,5.0,9.0,88,0.00,,,0.00,VWS V14.01,2013-11-17 09:40:00,
2013-11-17 03:45:00,40.4,37.1,29.33,South,187,3.0,9.0,88,0.00,,,0.00,VWS V14.01,2013-11-17 09:45:00,
2013-11-17 03:50:00,40.5,37.2,29.33,South,187,0.0,9.0,88,0.00,,,0.00,VWS V14.01,2013-11-17 09:50:00,
2013-11-17 03:55:00,40.5,37.2,29.34,South,180,1.0,9.0,88,0.00,,,0.00,VWS V14.01,2013-11-17 09:55:00,
2013-11-17 04:00:00,40.5,37.2,29.34,South,180,4.0,9.0,88,0.00,,,0.00,VWS V14.01,2013-11-17 10:00:00,
2013-11-17 04:05:00,40.6,37.3,29.34,South,179,4.0,7.0,88,0.00,,,0.00,VWS V14.01,2013-11-17 10:05:00,
2013-11-17 04:10:00,40.6,37.3,29.34,SSE,160,3.0,7.0,88,0.00,,,0.00,VWS V14.01,2013-11-17 10:10:00,
2013-11-17 04:15:00,40.6,37.3,29.35,South,178,5.0,10.0,88,0.00,,,0.00,VWS V14.01,2013-11-17 10:15:00,
2013-11-17 04:20:00,40.6,37.3,29.35,South,177,4.0,10.0,88,0.00,,,0.00,VWS V14.01,2013-11-17 10:20:00,
2013-11-17 04:25:00,40.7,37.4,29.36,South,177,5.0,10.0,88,0.00,,,0.00,VWS V14.01,2013-11-17 10:25:00,
2013-11-17 04:30:00,40.6,37.3,29.36,SSE,165,8.0,11.0,88,0.00,,,0.00,VWS V14.01,2013-11-17 10:30:00,
2013-11-17 04:35:00,40.6,37.3,29.35,South,174,6.0,9.0,88,0.00,,,0.00,VWS V14.01,2013-11-17 10:35:00,
2013-11-17 04:40:00,40.6,37.3,29.35,South,173,3.0,10.0,88,0.00,,,0.00,VWS V14.01,2013-11-17 10:40:00,
2013-11-17 04:45:00,40.5,37.2,29.35,South,177,4.0,10.0,88,0.00,,,0.00,VWS V14.01,2013-11-17 10:45:00,
2013-11-17 04:50:00,40.3,37.0,29.35,South,171,5.0,10.0,88,0.00,,,0.00,VWS V14.01,2013-11-17 10:50:00,
2013-11-17 04:55:00,40.1,36.8,29.35,SSE,166,4.0,10.0,88,0.00,,,0.00,VWS V14.01,2013-11-17 10:55:00,
2013-11-17 05:00:00,40.0,36.7,29.35,South,169,6.0,10.0,88,0.00,,,0.00,VWS V14.01,2013-11-17 11:00:00,
2013-11-17 05:05:00,39.9,36.6,29.35,SSE,168,3.0,5.0,88,0.00,,,0.00,VWS V14.01,2013-11-17 11:05:00,
2013-11-17 05:11:00,39.8,36.5,29.35,SSE,168,0.0,5.0,88,0.00,,,0.00,VWS V14.01,2013-11-17 11:11:00,
2013-11-17 05:16:00,39.8,36.5,29.35,SSE,168,2.0,5.0,88,0.00,,,0.00,VWS V14.01,2013-11-17 11:16:00,
2013-11-17 05:21:00,39.8,36.5,29.35,SSE,168,3.0,5.0,88,0.00,,,0.00,VWS V14.01,2013-11-17 11:21:00,
2013-11-17 05:26:00,39.9,36.6,29.35,SSE,168,3.0,6.0,88,0.00,,,0.00,VWS V14.01,2013-11-17 11:26:00,
2013-11-17 05:31:00,40.0,36.7,29.35,SSE,168,0.0,6.0,88,0.00,,,0.00,VWS V14.01,2013-11-17 11:31:00,
2013-11-17 05:36:00,40.1,37.1,29.35,South,177,4.0,6.0,89,0.01,,,0.01,VWS V14.01,2013-11-17 11:36:00,
2013-11-17 05:41:00,40.2,37.2,29.35,South,177,7.0,7.0,89,0.01,,,0.01,VWS V14.01,2013-11-17 11:41:00,
2013-11-17 05:46:00,40.3,37.3,29.34,South,179,3.0,7.0,89,0.01,,,0.01,VWS V14.01,2013-11-17 11:46:00,
2013-11-17 05:51:00,40.4,37.4,29.34,South,182,3.0,7.0,89,0.01,,,0.01,VWS V14.01,2013-11-17 11:51:00,
2013-11-17 05:56:00,40.5,37.5,29.34,South,187,2.0,7.0,89,0.01,,,0.01,VWS V14.01,2013-11-17 11:56:00,
2013-11-17 06:00:00,41.4,38.4,29.34,WNW,302,4.0,12.0,89,0.01,,,0.01,VWS V15.00,2013-11-17 12:00:00,
2013-11-17 06:01:00,40.6,37.6,29.34,WSW,250,1.0,7.0,89,0.01,,,0.01,VWS V14.01,2013-11-17 12:01:00,
2013-11-17 06:06:00,40.6,37.6,29.35,SSW,194,2.0,5.0,89,0.01,,,0.01,VWS V14.01,2013-11-17 12:06:00,
2013-11-17 06:11:00,40.7,37.7,29.35,SSW,201,3.0,6.0,89,0.01,,,0.01,VWS V14.01,2013-11-17 12:11:00,
2013-11-17 06:16:00,40.8,37.8,29.35,West,271,2.0,9.0,89,0.01,,,0.01,VWS V14.01,2013-11-17 12:16:00,
2013-11-17 06:21:00,41.0,38.0,29.35,WSW,258,6.0,9.0,89,0.01,,,0.01,VWS V14.01,2013-11-17 12:21:00,
2013-11-17 06:26:00,41.1,38.1,29.35,SSW,202,0.0,9.0,89,0.01,,,0.01,VWS V14.01,2013-11-17 12:26:00,
2013-11-17 06:31:00,41.1,38.1,29.35,West,279,2.0,9.0,89,0.01,,,0.01,VWS V14.01,2013-11-17 12:31:00,
2013-11-17 06:36:00,41.2,38.2,29.35,WNW,283,1.0,9.0,89,0.01,,,0.01,VWS V14.01,2013-11-17 12:36:00,
2013-11-17 06:41:00,41.3,38.3,29.35,WNW,294,1.0,9.0,89,0.01,,,0.01,VWS V14.01,2013-11-17 12:41:00,
2013-11-17 06:46:00,41.3,38.3,29.35,West,267,7.0,12.0,89,0.01,,,0.01,VWS V14.01,2013-11-17 12:46:00,
2013-11-17 06:51:00,41.4,38.4,29.34,WNW,294,3.0,12.0,89,0.01,,,0.01,VWS V14.01,2013-11-17 12:51:00,
2013-11-17 06:56:00,41.4,38.4,29.33,WNW,299,5.0,12.0,89,0.01,,,0.01,VWS V14.01,2013-11-17 12:56:00,
2013-11-17 07:01:00,41.4,38.4,29.34,WNW,289,4.0,6.0,89,0.00,,,0.01,VWS V14.01,2013-11-17 13:01:00,
2013-11-17 07:06:00,41.5,38.5,29.34,WNW,287,9.0,12.0,89,0.00,,,0.01,VWS V14.01,2013-11-17 13:06:00,
2013-11-17 07:11:00,41.5,38.5,29.34,WNW,300,4.0,12.0,89,0.00,,,0.01,VWS V14.01,2013-11-17 13:11:00,
2013-11-17 07:16:00,41.6,38.6,29.34,WNW,295,2.0,12.0,89,0.00,,,0.01,VWS V14.01,2013-11-17 13:16:00,
2013-11-17 07:21:00,41.6,38.6,29.34,WNW,301,4.0,12.0,89,0.00,,,0.01,VWS V14.01,2013-11-17 13:21:00,
2013-11-17 07:27:00,41.6,38.3,29.34,WNW,288,2.0,13.0,88,0.00,,,0.01,VWS V14.01,2013-11-17 13:27:00,
2013-11-17 07:32:00,41.5,38.2,29.35,NW,317,6.0,7.0,88,0.00,,,0.01,VWS V14.01,2013-11-17 13:32:00,
2013-11-17 07:37:00,41.3,37.7,29.35,NW,310,9.0,12.0,87,0.00,,,0.01,VWS V14.01,2013-11-17 13:37:00,
2013-11-17 07:42:00,41.2,37.3,29.36,WNW,285,5.0,12.0,86,0.00,,,0.01,VWS V14.01,2013-11-17 13:42:00,
2013-11-17 07:47:00,41.1,36.9,29.36,West,274,4.0,12.0,85,0.00,,,0.01,VWS V14.01,2013-11-17 13:47:00,
2013-11-17 07:52:00,40.9,36.8,29.36,NW,306,3.0,12.0,85,0.00,,,0.01,VWS V14.01,2013-11-17 13:52:00,
2013-11-17 07:57:00,40.9,36.8,29.36,West,281,3.0,12.0,85,0.00,,,0.01,VWS V14.01,2013-11-17 13:57:00,
2013-11-17 08:00:00,40.5,36.1,29.39,WSW,254,5.0,11.0,84,0.00,,,0.01,VWS V15.00,2013-11-17 14:00:00,
2013-11-17 08:02:00,40.7,36.5,29.36,West,279,0.0,6.0,85,0.00,,,0.01,VWS V14.01,2013-11-17 14:02:00,
2013-11-17 08:07:00,40.6,36.5,29.36,West,271,5.0,6.0,85,0.00,,,0.01,VWS V14.01,2013-11-17 14:07:00,
2013-11-17 08:12:00,40.6,36.5,29.37,NW,306,0.0,11.0,85,0.00,,,0.01,VWS V14.01,2013-11-17 14:12:00,
2013-11-17 08:17:00,40.6,36.5,29.37,WNW,286,3.0,11.0,85,0.00,,,0.01,VWS V14.01,2013-11-17 14:17:00,
2013-11-17 08:22:00,40.5,36.0,29.37,WNW,287,3.0,11.0,84,0.00,,,0.01,VWS V14.01,2013-11-17 14:22:00,
2013-11-17 08:27:00,40.5,36.0,29.38,West,281,0.0,11.0,84,0.00,,,0.01,VWS V14.01,2013-11-17 14:27:00,
2013-11-17 08:30:00,40.7,36.0,29.40,WNW,285,6.0,13.0,83,0.00,,,0.01,VWS V15.00,2013-11-17 14:30:00,
2013-11-17 08:32:00,40.5,36.0,29.38,WNW,289,2.0,11.0,84,0.00,,,0.01,VWS V14.01,2013-11-17 14:32:00,
2013-11-17 08:37:00,40.5,36.0,29.38,WSW,258,6.0,11.0,84,0.00,,,0.01,VWS V14.01,2013-11-17 14:37:00,
2013-11-17 08:42:00,40.5,36.0,29.38,West,264,7.0,11.0,84,0.00,,,0.01,VWS V14.01,2013-11-17 14:42:00,
2013-11-17 08:47:00,40.5,36.0,29.39,WNW,287,3.0,11.0,84,0.00,,,0.01,VWS V14.01,2013-11-17 14:47:00,
2013-11-17 08:52:00,40.5,36.0,29.39,NW,319,5.0,11.0,84,0.00,,,0.01,VWS V14.01,2013-11-17 14:52:00,
2013-11-17 08:57:00,40.5,36.0,29.39,West,259,5.0,11.0,84,0.00,,,0.01,VWS V14.01,2013-11-17 14:57:00,
2013-11-17 09:02:00,40.4,35.7,29.39,West,262,5.0,10.0,83,0.00,,,0.01,VWS V14.01,2013-11-17 15:02:00,
2013-11-17 09:07:00,40.5,35.8,29.39,NW,304,0.0,10.0,83,0.00,,,0.01,VWS V14.01,2013-11-17 15:07:00,
2013-11-17 09:12:00,40.5,36.0,29.40,NNW,338,5.0,10.0,84,0.00,,,0.01,VWS V14.01,2013-11-17 15:12:00,
2013-11-17 09:17:00,40.5,36.0,29.40,West,270,9.0,10.0,84,0.00,,,0.01,VWS V14.01,2013-11-17 15:17:00,
2013-11-17 09:22:00,40.6,35.8,29.40,West,277,11.0,12.0,83,0.00,,,0.01,VWS V14.01,2013-11-17 15:22:00,
2013-11-17 09:27:00,40.6,35.8,29.40,WNW,296,0.0,13.0,83,0.00,,,0.01,VWS V14.01,2013-11-17 15:27:00,
2013-11-17 09:32:00,40.7,36.0,29.40,West,281,9.0,12.0,83,0.00,,,0.01,VWS V14.01,2013-11-17 15:32:00,
2013-11-17 09:38:00,40.7,36.0,29.40,WNW,289,5.0,12.0,83,0.00,,,0.01,VWS V14.01,2013-11-17 15:38:00,
2013-11-17 09:43:00,40.8,36.0,29.40,WNW,283,2.0,13.0,83,0.00,,,0.01,VWS V14.01,2013-11-17 15:43:00,
2013-11-17 09:48:00,40.9,36.1,29.40,WNW,283,4.0,14.0,83,0.00,,,0.01,VWS V14.01,2013-11-17 15:48:00,
2013-11-17 09:53:00,41.0,36.2,29.40,West,280,3.0,14.0,83,0.00,,,0.01,VWS V14.01,2013-11-17 15:53:00,
2013-11-17 09:58:00,41.0,36.2,29.40,West,271,5.0,14.0,83,0.00,,,0.01,VWS V14.01,2013-11-17 15:58:00,
2013-11-17 10:03:00,41.1,36.0,29.41,NW,310,12.0,12.0,82,0.00,,,0.01,VWS V14.01,2013-11-17 16:03:00,
2013-11-17 10:08:00,41.2,36.1,29.41,NW,304,5.0,12.0,82,0.00,,,0.01,VWS V14.01,2013-11-17 16:08:00,
2013-11-17 10:13:00,41.3,36.2,29.41,WNW,296,4.0,12.0,82,0.00,,,0.01,VWS V14.01,2013-11-17 16:13:00,
2013-11-17 10:18:00,41.3,36.2,29.41,NW,308,7.0,12.0,82,0.00,,,0.01,VWS V14.01,2013-11-17 16:18:00,
2013-11-17 10:23:00,41.5,36.4,29.41,NW,312,5.0,12.0,82,0.00,,,0.01,VWS V14.01,2013-11-17 16:23:00,
2013-11-17 10:28:00,41.7,36.6,29.41,WNW,298,6.0,12.0,82,0.00,,,0.01,VWS V14.01,2013-11-17 16:28:00,
2013-11-17 10:33:00,41.8,36.7,29.41,WNW,300,0.0,11.0,82,0.00,,,0.01,VWS V14.01,2013-11-17 16:33:00,
2013-11-17 10:38:00,41.8,36.7,29.42,WNW,285,6.0,14.0,82,0.00,,,0.01,VWS V14.01,2013-11-17 16:38:00,
2013-11-17 10:43:00,41.8,36.7,29.42,NW,306,6.0,14.0,82,0.00,,,0.01,VWS V14.01,2013-11-17 16:43:00,
2013-11-17 10:48:00,41.8,36.4,29.42,WNW,298,3.0,14.0,81,0.00,,,0.01,VWS V14.01,2013-11-17 16:48:00,
2013-11-17 10:53:00,41.8,36.7,29.42,WSW,258,4.0,14.0,82,0.00,,,0.01,VWS V14.01,2013-11-17 16:53:00,
2013-11-17 10:58:00,41.9,36.8,29.42,WNW,296,7.0,14.0,82,0.00,,,0.01,VWS V14.01,2013-11-17 16:58:00,
2013-11-17 11:03:00,42.0,36.9,29.42,WNW,287,0.0,9.0,82,0.00,,,0.01,VWS V14.01,2013-11-17 17:03:00,
2013-11-17 11:08:00,42.1,36.7,29.43,WNW,289,3.0,10.0,81,0.00,,,0.01,VWS V14.01,2013-11-17 17:08:00,
2013-11-17 11:13:00,42.4,37.0,29.43,NW,312,0.0,13.0,81,0.00,,,0.01,VWS V14.01,2013-11-17 17:13:00,
2013-11-17 11:18:00,42.7,37.3,29.43,WNW,287,6.0,13.0,81,0.00,,,0.01,VWS V14.01,2013-11-17 17:18:00,
2013-11-17 11:23:00,42.8,37.1,29.43,NW,309,10.0,18.0,80,0.00,,,0.01,VWS V14.01,2013-11-17 17:23:00,
2013-11-17 11:28:00,42.9,37.2,29.43,SSW,202,6.0,18.0,80,0.00,,,0.01,VWS V14.01,2013-11-17 17:28:00,
2013-11-17 11:33:00,42.8,36.8,29.43,WSW,250,0.0,17.0,79,0.00,,,0.01,VWS V14.01,2013-11-17 17:33:00,
2013-11-17 11:38:00,42.8,36.8,29.43,WNW,293,0.0,17.0,79,0.00,,,0.01,VWS V14.01,2013-11-17 17:38:00,
2013-11-17 11:43:00,42.8,37.1,29.43,WNW,303,13.0,17.0,80,0.00,,,0.01,VWS V14.01,2013-11-17 17:43:00,
2013-11-17 11:48:00,42.9,36.8,29.43,WNW,285,2.0,18.0,79,0.00,,,0.01,VWS V14.01,2013-11-17 17:48:00,
2013-11-17 11:54:00,42.9,36.8,29.43,NW,304,5.0,18.0,79,0.00,,,0.01,VWS V14.01,2013-11-17 17:54:00,
2013-11-17 11:59:00,42.9,36.8,29.43,WNW,296,10.0,18.0,79,0.00,,,0.01,VWS V14.01,2013-11-17 17:59:00,
2013-11-17 12:00:00,42.5,35.8,29.47,NW,312,2.0,22.0,77,0.00,,,0.01,VWS V15.00,2013-11-17 18:00:00,
2013-11-17 12:04:00,42.9,36.8,29.44,WNW,296,9.0,18.0,79,0.00,,,0.01,VWS V14.01,2013-11-17 18:04:00,
2013-11-17 12:09:00,43.1,36.7,29.43,WNW,294,1.0,18.0,78,0.00,,,0.01,VWS V14.01,2013-11-17 18:09:00,
2013-11-17 12:14:00,43.1,36.7,29.43,West,277,5.0,18.0,78,0.00,,,0.01,VWS V14.01,2013-11-17 18:14:00,
2013-11-17 12:19:00,43.1,36.7,29.43,NW,313,4.0,18.0,78,0.00,,,0.01,VWS V14.01,2013-11-17 18:19:00,
2013-11-17 12:24:00,42.9,36.5,29.44,West,271,6.0,18.0,78,0.00,,,0.01,VWS V14.01,2013-11-17 18:24:00,
2013-11-17 12:29:00,42.9,36.5,29.44,WNW,294,6.0,18.0,78,0.00,,,0.01,VWS V14.01,2013-11-17 18:29:00,
2013-11-17 12:30:00,42.2,35.8,29.48,WNW,301,11.0,22.0,78,0.00,,,0.01,VWS V15.00,2013-11-17 18:30:00,
2013-11-17 12:34:00,42.9,36.5,29.44,WNW,298,3.0,17.0,78,0.00,,,0.01,VWS V14.01,2013-11-17 18:34:00,
2013-11-17 12:39:00,42.9,36.2,29.45,WNW,294,12.0,18.0,77,0.00,,,0.01,VWS V14.01,2013-11-17 18:39:00,
2013-11-17 12:44:00,42.9,36.2,29.45,WNW,300,12.0,21.0,77,0.00,,,0.01,VWS V14.01,2013-11-17 18:44:00,
2013-11-17 12:49:00,42.8,36.1,29.45,NW,323,9.0,22.0,77,0.00,,,0.01,VWS V14.01,2013-11-17 18:49:00,
2013-11-17 12:54:00,42.8,36.1,29.46,West,277,5.0,22.0,77,0.00,,,0.01,VWS V14.01,2013-11-17 18:54:00,
2013-11-17 12:59:00,42.7,36.3,29.46,NW,321,16.0,22.0,78,0.00,,,0.01,VWS V14.01,2013-11-17 18:59:00,
2013-11-17 13:04:00,42.3,35.6,29.47,WNW,296,13.0,18.0,77,0.00,,,0.01,VWS V14.01,2013-11-17 19:04:00,
2013-11-17 13:09:00,42.1,35.4,29.47,NW,316,13.0,18.0,77,0.00,,,0.01,VWS V14.01,2013-11-17 19:09:00,
2013-11-17 13:14:00,42.0,35.7,29.47,NW,304,9.0,20.0,78,0.00,,,0.01,VWS V14.01,2013-11-17 19:14:00,
2013-11-17 13:19:00,42.1,35.8,29.47,NW,312,14.0,20.0,78,0.00,,,0.01,VWS V14.01,2013-11-17 19:19:00,
2013-11-17 13:24:00,42.2,35.8,29.48,WNW,303,4.0,22.0,78,0.00,,,0.01,VWS V14.01,2013-11-17 19:24:00,
2013-11-17 13:29:00,42.2,35.8,29.48,NW,306,10.0,22.0,78,0.00,,,0.01,VWS V14.01,2013-11-17 19:29:00,
2013-11-17 13:34:00,42.2,35.8,29.48,WNW,294,5.0,20.0,78,0.00,,,0.01,VWS V14.01,2013-11-17 19:34:00,
2013-11-17 13:39:00,42.2,35.8,29.48,WNW,282,3.0,20.0,78,0.00,,,0.01,VWS V14.01,2013-11-17 19:39:00,
2013-11-17 13:44:00,42.2,35.8,29.48,NW,306,7.0,20.0,78,0.00,,,0.01,VWS V14.01,2013-11-17 19:44:00,
2013-11-17 13:49:00,42.3,35.9,29.49,West,277,4.0,20.0,78,0.00,,,0.01,VWS V14.01,2013-11-17 19:49:00,
2013-11-17 13:54:00,42.4,36.0,29.49,WNW,290,14.0,20.0,78,0.00,,,0.01,VWS V14.01,2013-11-17 19:54:00,
2013-11-17 13:59:00,42.4,35.7,29.49,NW,324,13.0,20.0,77,0.00,,,0.01,VWS V14.01,2013-11-17 19:59:00,
2013-11-17 14:05:00,42.3,35.6,29.49,NW,307,4.0,20.0,77,0.00,,,0.01,VWS V14.01,2013-11-17 20:05:00,
2013-11-17 14:10:00,42.3,35.6,29.50,WNW,288,10.0,20.0,77,0.00,,,0.01,VWS V14.01,2013-11-17 20:10:00,
2013-11-17 14:15:00,42.1,35.4,29.50,NW,309,12.0,20.0,77,0.00,,,0.01,VWS V14.01,2013-11-17 20:15:00,
2013-11-17 14:20:00,42.0,35.3,29.51,West,267,7.0,20.0,77,0.00,,,0.01,VWS V14.01,2013-11-17 20:20:00,
2013-11-17 14:25:00,42.0,35.7,29.51,NW,306,17.0,20.0,78,0.00,,,0.01,VWS V14.01,2013-11-17 20:25:00,
2013-11-17 14:30:00,41.9,35.2,29.51,WNW,291,5.0,21.0,77,0.00,,,0.01,VWS V14.01,2013-11-17 20:30:00,
2013-11-17 14:35:00,41.9,34.9,29.51,WNW,293,4.0,27.0,76,0.00,,,0.01,VWS V14.01,2013-11-17 20:35:00,
2013-11-17 14:40:00,41.9,35.2,29.51,WNW,302,13.0,27.0,77,0.00,,,0.01,VWS V14.01,2013-11-17 20:40:00,
2013-11-17 14:45:00,41.9,35.2,29.52,WNW,296,5.0,27.0,77,0.00,,,0.01,VWS V14.01,2013-11-17 20:45:00,
2013-11-17 14:50:00,41.9,35.2,29.52,WNW,291,9.0,27.0,77,0.00,,,0.01,VWS V14.01,2013-11-17 20:50:00,
2013-11-17 14:55:00,41.9,35.2,29.52,NW,310,13.0,27.0,77,0.00,,,0.01,VWS V14.01,2013-11-17 20:55:00,
2013-11-17 15:00:00,41.9,35.2,29.53,NW,319,3.0,27.0,77,0.00,,,0.01,VWS V14.01,2013-11-17 21:00:00,
2013-11-17 15:05:00,41.9,35.2,29.53,West,273,7.0,20.0,77,0.00,,,0.01,VWS V14.01,2013-11-17 21:05:00,
2013-11-17 15:10:00,41.8,35.1,29.53,NW,309,13.0,20.0,77,0.00,,,0.01,VWS V14.01,2013-11-17 21:10:00,
2013-11-17 15:15:00,41.5,34.8,29.54,WNW,284,6.0,26.0,77,0.00,,,0.01,VWS V14.01,2013-11-17 21:15:00,
2013-11-17 15:20:00,41.1,34.5,29.54,West,262,4.0,26.0,77,0.00,,,0.01,VWS V14.01,2013-11-17 21:20:00,
2013-11-17 15:25:00,40.9,34.3,29.55,NW,306,6.0,26.0,77,0.00,,,0.01,VWS V14.01,2013-11-17 21:25:00,
2013-11-17 15:30:00,40.7,34.4,29.55,West,277,7.0,26.0,78,0.00,,,0.01,VWS V14.01,2013-11-17 21:30:00,
2013-11-17 15:35:00,40.4,33.8,29.56,WNW,296,11.0,24.0,77,0.00,,,0.01,VWS V14.01,2013-11-17 21:35:00,
2013-11-17 15:40:00,40.0,33.4,29.56,West,279,9.0,24.0,77,0.00,,,0.01,VWS V14.01,2013-11-17 21:40:00,
2013-11-17 15:45:00,39.6,33.0,29.57,NNW,329,14.0,24.0,77,0.00,,,0.01,VWS V14.01,2013-11-17 21:45:00,
2013-11-17 15:50:00,39.3,33.0,29.57,NW,308,10.0,24.0,78,0.00,,,0.01,VWS V14.01,2013-11-17 21:50:00,
2013-11-17 15:55:00,39.1,32.8,29.58,NW,314,10.0,24.0,78,0.00,,,0.01,VWS V14.01,2013-11-17 21:55:00,
2013-11-17 16:00:00,38.8,32.5,29.58,West,278,10.0,24.0,78,0.00,,,0.01,VWS V14.01,2013-11-17 22:00:00,
2013-11-17 16:05:00,38.8,32.5,29.58,WNW,295,10.0,16.0,78,0.00,,,0.01,VWS V14.01,2013-11-17 22:05:00,
2013-11-17 16:11:00,38.8,32.9,29.59,West,270,7.0,16.0,79,0.00,,,0.01,VWS V14.01,2013-11-17 22:11:00,
2013-11-17 16:16:00,38.7,32.8,29.59,West,278,16.0,20.0,79,0.00,,,0.01,VWS V14.01,2013-11-17 22:16:00,
2013-11-17 16:21:00,38.5,32.2,29.60,NW,309,14.0,23.0,78,0.00,,,0.01,VWS V14.01,2013-11-17 22:21:00,
2013-11-17 16:26:00,38.2,32.0,29.60,WNW,302,4.0,23.0,78,0.00,,,0.01,VWS V14.01,2013-11-17 22:26:00,
2013-11-17 16:31:00,38.0,31.8,29.60,NW,306,4.0,23.0,78,0.00,,,0.01,VWS V14.01,2013-11-17 22:31:00,
2013-11-17 16:36:00,37.9,31.7,29.61,NW,306,7.0,15.0,78,0.00,,,0.01,VWS V14.01,2013-11-17 22:36:00,
2013-11-17 16:41:00,37.9,31.7,29.62,WNW,299,4.0,15.0,78,0.00,,,0.01,VWS V14.01,2013-11-17 22:41:00,
2013-11-17 16:46:00,37.8,31.6,29.62,WNW,292,7.0,15.0,78,0.00,,,0.01,VWS V14.01,2013-11-17 22:46:00,
2013-11-17 16:51:00,37.7,31.5,29.62,NW,309,13.0,15.0,78,0.00,,,0.01,VWS V14.01,2013-11-17 22:51:00,
2013-11-17 16:56:00,37.7,31.8,29.63,NW,324,5.0,17.0,79,0.00,,,0.01,VWS V14.01,2013-11-17 22:56:00,
2013-11-17 17:00:00,35.9,29.7,29.68,WNW,300,4.0,23.0,78,0.00,,,0.01,VWS V15.00,2013-11-17 23:00:00,
2013-11-17 17:01:00,37.8,31.9,29.64,WNW,300,14.0,25.0,79,0.00,,,0.01,VWS V14.01,2013-11-17 23:01:00,
2013-11-17 17:06:00,37.5,31.0,29.64,West,265,12.0,21.0,77,0.00,,,0.01,VWS V14.01,2013-11-17 23:06:00,
2013-11-17 17:11:00,37.1,30.6,29.64,WNW,284,17.0,21.0,77,0.00,,,0.01,VWS V14.01,2013-11-17 23:11:00,
2013-11-17 17:16:00,36.6,30.4,29.65,WNW,302,14.0,21.0,78,0.00,,,0.01,VWS V14.01,2013-11-17 23:16:00,
2013-11-17 17:21:00,36.4,30.2,29.65,NW,308,9.0,24.0,78,0.00,,,0.01,VWS V14.01,2013-11-17 23:21:00,
2013-11-17 17:26:00,36.3,30.1,29.66,WNW,297,13.0,24.0,78,0.00,,,0.01,VWS V14.01,2013-11-17 23:26:00,
2013-11-17 17:31:00,36.2,30.3,29.66,WNW,284,4.0,10.0,79,0.00,,,0.01,VWS V14.01,2013-11-17 23:31:00,
2013-11-17 17:37:00,36.2,30.3,29.66,West,279,6.0,12.0,79,0.00,,,0.01,VWS V14.01,2013-11-17 23:37:00,
2013-11-17 17:42:00,36.1,30.5,29.67,WNW,295,6.0,14.0,80,0.00,,,0.01,VWS V14.01,2013-11-17 23:42:00,
2013-11-17 17:47:00,36.1,30.2,29.67,NW,312,5.0,14.0,79,0.00,,,0.01,VWS V14.01,2013-11-17 23:47:00,
2013-11-17 17:52:00,36.0,29.8,29.68,WNW,294,12.0,17.0,78,0.00,,,0.01,VWS V14.01,2013-11-17 23:52:00,
2013-11-17 17:57:00,35.9,29.7,29.68,WNW,298,9.0,23.0,78,0.00,,,0.01,VWS V14.01,2013-11-17 23:57:00,
2013-11-17 18:02:00,35.9,29.7,29.68,NW,305,3.0,9.0,78,0.00,,,0.01,VWS V14.01,2013-11-18 00:02:00,
2013-11-17 18:07:00,35.8,29.9,29.70,West,276,5.0,22.0,79,0.00,,,0.01,VWS V14.01,2013-11-18 00:07:00,
2013-11-17 18:12:00,35.6,29.4,29.71,West,269,13.0,22.0,78,0.00,,,0.01,VWS V14.01,2013-11-18 00:12:00,
2013-11-17 18:17:00,35.4,28.9,29.71,NW,323,14.0,23.0,77,0.00,,,0.01,VWS V14.01,2013-11-18 00:17:00,
2013-11-17 18:22:00,35.3,28.8,29.71,WNW,284,11.0,23.0,77,0.00,,,0.01,VWS V14.01,2013-11-18 00:22:00,
2013-11-17 18:27:00,35.2,28.7,29.71,WNW,283,11.0,23.0,77,0.00,,,0.01,VWS V14.01,2013-11-18 00:27:00,
2013-11-17 18:32:00,35.1,28.3,29.72,West,277,13.0,21.0,76,0.00,,,0.01,VWS V14.01,2013-11-18 00:32:00,
2013-11-17 18:37:00,35.0,28.2,29.73,WNW,302,9.0,21.0,76,0.00,,,0.01,VWS V14.01,2013-11-18 00:37:00,
2013-11-17 18:42:00,34.9,28.4,29.73,SSW,201,6.0,21.0,77,0.00,,,0.01,VWS V14.01,2013-11-18 00:42:00,
2013-11-17 18:47:00,34.8,28.3,29.73,WSW,254,14.0,21.0,77,0.00,,,0.01,VWS V14.01,2013-11-18 00:47:00,
2013-11-17 18:52:00,34.6,28.1,29.73,West,273,7.0,21.0,77,0.00,,,0.01,VWS V14.01,2013-11-18 00:52:00,
2013-11-17 18:57:00,34.5,28.0,29.74,WNW,290,18.0,21.0,77,0.00,,,0.01,VWS V14.01,2013-11-18 00:57:00,
2013-11-17 19:00:00,33.5,27.1,29.77,NW,310,18.0,24.0,77,0.00,,,0.01,VWS V15.00,2013-11-18 01:00:00,
2013-11-17 19:02:00,34.4,28.0,29.74,WNW,301,3.0,16.0,77,0.00,,,0.01,VWS V14.01,2013-11-18 01:02:00,
2013-11-17 19:07:00,34.3,28.2,29.74,West,277,6.0,16.0,78,0.00,,,0.01,VWS V14.01,2013-11-18 01:07:00,
2013-11-17 19:12:00,34.1,27.7,29.75,NW,319,10.0,18.0,77,0.00,,,0.01,VWS V14.01,2013-11-18 01:12:00,
2013-11-17 19:17:00,33.9,27.5,29.75,NW,323,19.0,22.0,77,0.00,,,0.01,VWS V14.01,2013-11-18 01:17:00,
2013-11-17 19:22:00,33.8,27.4,29.75,WNW,299,13.0,22.0,77,0.00,,,0.01,VWS V14.01,2013-11-18 01:22:00,
2013-11-17 19:27:00,33.7,27.3,29.76,West,263,7.0,24.0,77,0.00,,,0.01,VWS V14.01,2013-11-18 01:27:00,
2013-11-17 19:32:00,33.5,27.4,29.75,NW,314,10.0,16.0,78,0.00,,,0.01,VWS V14.01,2013-11-18 01:32:00,
2013-11-17 19:37:00,33.5,27.1,29.76,West,279,10.0,24.0,77,0.00,,,0.01,VWS V14.01,2013-11-18 01:37:00,
2013-11-17 19:43:00,33.5,27.1,29.76,WNW,300,4.0,24.0,77,0.00,,,0.01,VWS V14.01,2013-11-18 01:43:00,
2013-11-17 19:48:00,33.5,27.1,29.76,West,276,9.0,24.0,77,0.00,,,0.01,VWS V14.01,2013-11-18 01:48:00,
2013-11-17 19:53:00,33.5,27.1,29.77,West,273,3.0,24.0,77,0.00,,,0.01,VWS V14.01,2013-11-18 01:53:00,
2013-11-17 19:58:00,33.5,27.1,29.76,WNW,289,7.0,24.0,77,0.00,,,0.01,VWS V14.01,2013-11-18 01:58:00,
2013-11-17 20:03:00,33.5,27.1,29.77,NNW,328,6.0,21.0,77,0.00,,,0.01,VWS V14.01,2013-11-18 02:03:00,
2013-11-17 20:08:00,33.5,26.8,29.77,NW,304,14.0,21.0,76,0.00,,,0.01,VWS V14.01,2013-11-18 02:08:00,
2013-11-17 20:13:00,33.5,26.8,29.77,West,277,3.0,21.0,76,0.00,,,0.01,VWS V14.01,2013-11-18 02:13:00,
2013-11-17 20:18:00,33.4,27.0,29.77,NW,318,4.0,21.0,77,0.00,,,0.01,VWS V14.01,2013-11-18 02:18:00,
2013-11-17 20:23:00,33.4,27.0,29.78,NW,304,11.0,21.0,77,0.00,,,0.01,VWS V14.01,2013-11-18 02:23:00,
2013-11-17 20:28:00,33.3,26.6,29.78,West,281,14.0,23.0,76,0.00,,,0.01,VWS V14.01,2013-11-18 02:28:00,
2013-11-17 20:30:00,32.5,25.8,29.81,West,273,10.0,26.0,76,0.00,,,0.01,VWS V15.00,2013-11-18 02:30:00,
2013-11-17 20:33:00,33.3,26.6,29.78,NW,318,9.0,20.0,76,0.00,,,0.01,VWS V14.01,2013-11-18 02:33:00,
2013-11-17 20:38:00,33.2,26.8,29.79,WNW,283,5.0,24.0,77,0.00,,,0.01,VWS V14.01,2013-11-18 02:38:00,
2013-11-17 20:43:00,33.1,26.7,29.79,WNW,294,4.0,24.0,77,0.00,,,0.01,VWS V14.01,2013-11-18 02:43:00,
2013-11-17 20:48:00,33.1,26.7,29.78,NW,317,9.0,24.0,77,0.00,,,0.01,VWS V14.01,2013-11-18 02:48:00,
2013-11-17 20:53:00,33.0,26.6,29.79,SSW,199,4.0,24.0,77,0.00,,,0.01,VWS V14.01,2013-11-18 02:53:00,
2013-11-17 20:58:00,33.0,26.6,29.80,WNW,294,11.0,24.0,77,0.00,,,0.01,VWS V14.01,2013-11-18 02:58:00,
2013-11-17 21:00:00,32.2,25.8,29.82,NW,310,9.0,25.0,77,0.00,,,0.01,VWS V15.00,2013-11-18 03:00:00,
2013-11-17 21:03:00,33.0,26.6,29.80,WNW,302,8.0,15.0,77,0.00,,,0.01,VWS V14.01,2013-11-18 03:03:00,
2013-11-17 21:08:00,32.9,26.5,29.80,WSW,256,10.0,20.0,77,0.00,,,0.01,VWS V14.01,2013-11-18 03:08:00,
2013-11-17 21:13:00,32.8,26.4,29.80,SSW,195,4.0,20.0,77,0.00,,,0.01,VWS V14.01,2013-11-18 03:13:00,
2013-11-17 21:18:00,32.6,26.2,29.80,NW,307,13.0,20.0,77,0.00,,,0.01,VWS V14.01,2013-11-18 03:18:00,
2013-11-17 21:23:00,32.5,26.1,29.80,WNW,297,4.0,21.0,77,0.00,,,0.01,VWS V14.01,2013-11-18 03:23:00,
2013-11-17 21:28:00,32.5,26.1,29.81,WNW,302,10.0,26.0,77,0.00,,,0.01,VWS V14.01,2013-11-18 03:28:00,
2013-11-17 21:30:00,32.1,25.7,29.83,WNW,296,9.0,20.0,77,0.00,,,0.01,VWS V15.00,2013-11-18 03:30:00,
2013-11-17 21:33:00,32.4,26.0,29.81,NW,323,4.0,17.0,77,0.00,,,0.01,VWS V14.01,2013-11-18 03:33:00,
2013-11-17 21:38:00,32.4,26.0,29.81,NW,307,9.0,20.0,77,0.00,,,0.01,VWS V14.01,2013-11-18 03:38:00,
2013-11-17 21:43:00,32.3,25.6,29.81,NNW,327,15.0,23.0,76,0.00,,,0.01,VWS V14.01,2013-11-18 03:43:00,
2013-11-17 21:48:00,32.3,25.6,29.82,NW,308,10.0,25.0,76,0.00,,,0.01,VWS V14.01,2013-11-18 03:48:00,
2013-11-17 21:53:00,32.3,25.9,29.82,West,271,5.0,25.0,77,0.00,,,0.01,VWS V14.01,2013-11-18 03:53:00,
2013-11-17 21:59:00,32.2,25.8,29.82,NW,318,4.0,25.0,77,0.00,,,0.01,VWS V14.01,2013-11-18 03:59:00,
2013-11-17 22:04:00,32.2,25.8,29.82,NW,318,11.0,16.0,77,0.00,,,0.01,VWS V14.01,2013-11-18 04:04:00,
2013-11-17 22:09:00,32.2,25.8,29.82,WNW,292,6.0,19.0,77,0.00,,,0.01,VWS V14.01,2013-11-18 04:09:00,
2013-11-17 22:14:00,32.2,25.8,29.82,West,260,7.0,19.0,77,0.00,,,0.01,VWS V14.01,2013-11-18 04:14:00,
2013-11-17 22:19:00,32.1,25.7,29.83,WNW,285,6.0,19.0,77,0.00,,,0.01,VWS V14.01,2013-11-18 04:19:00,
2013-11-17 22:24:00,32.1,25.7,29.83,West,273,7.0,20.0,77,0.00,,,0.01,VWS V14.01,2013-11-18 04:24:00,
2013-11-17 22:29:00,32.1,25.7,29.83,WNW,292,15.0,20.0,77,0.00,,,0.01,VWS V14.01,2013-11-18 04:29:00,
2013-11-17 22:34:00,32.1,25.7,29.83,West,276,10.0,16.0,77,0.00,,,0.01,VWS V14.01,2013-11-18 04:34:00,
2013-11-17 22:39:00,32.0,25.3,29.83,WNW,299,6.0,19.0,76,0.00,,,0.01,VWS V14.01,2013-11-18 04:39:00,
2013-11-17 22:44:00,32.0,25.6,29.84,NNW,335,2.0,19.0,77,0.00,,,0.01,VWS V14.01,2013-11-18 04:44:00,
2013-11-17 22:49:00,31.9,25.5,29.84,WNW,293,9.0,19.0,77,0.00,,,0.01,VWS V14.01,2013-11-18 04:49:00,
2013-11-17 22:54:00,31.9,25.5,29.85,NW,310,4.0,19.0,77,0.00,,,0.01,VWS V14.01,2013-11-18 04:54:00,
2013-11-17 22:59:00,31.8,25.4,29.85,WNW,282,6.0,19.0,77,0.00,,,0.01,VWS V14.01,2013-11-18 04:59:00,
2013-11-17 23:01:00,31.8,25.4,29.85,West,271,14.0,19.0,77,0.00,,,0.01,VWS V14.01,2013-11-18 05:01:00,
2013-11-17 23:02:00,31.8,25.4,29.85,West,272,8.0,14.0,77,0.00,,,0.01,VWS V14.01,2013-11-18 05:02:00,
2013-11-17 23:03:00,31.8,25.4,29.85,NW,314,5.0,14.0,77,0.00,,,0.01,VWS V14.01,2013-11-18 05:03:00,
2013-11-17 23:04:00,31.8,25.4,29.85,WNW,297,9.0,14.0,77,0.00,,,0.01,VWS V14.01,2013-11-18 05:04:00,
2013-11-17 23:06:00,31.8,25.1,29.85,WNW,300,5.0,19.0,76,0.00,,,0.01,VWS V14.01,2013-11-18 05:06:00,
2013-11-17 23:11:00,31.7,25.0,29.85,West,273,5.0,19.0,76,0.00,,,0.01,VWS V14.01,2013-11-18 05:11:00,
2013-11-17 23:16:00,31.6,24.9,29.85,WSW,250,11.0,23.0,76,0.00,,,0.01,VWS V14.01,2013-11-18 05:16:00,
2013-11-17 23:21:00,31.4,24.7,29.86,NW,310,10.0,23.0,76,0.00,,,0.01,VWS V14.01,2013-11-18 05:21:00,
2013-11-17 23:26:00,31.2,24.5,29.86,NW,308,7.0,23.0,76,0.00,,,0.01,VWS V14.01,2013-11-18 05:26:00,
2013-11-17 23:31:00,31.2,24.5,29.86,WNW,285,11.0,12.0,76,0.00,,,0.01,VWS V14.01,2013-11-18 05:31:00,
2013-11-17 23:36:00,31.2,24.5,29.86,WNW,301,5.0,21.0,76,0.00,,,0.01,VWS V14.01,2013-11-18 05:36:00,
2013-11-17 23:41:00,31.2,24.5,29.86,NW,319,7.0,21.0,76,0.00,,,0.01,VWS V14.01,2013-11-18 05:41:00,
2013-11-17 23:46:00,31.2,24.5,29.86,WNW,283,12.0,21.0,76,0.00,,,0.01,VWS V14.01,2013-11-18 05:46:00,
2013-11-17 23:51:00,31.2,24.5,29.87,NW,311,9.0,21.0,76,0.00,,,0.01,VWS V14.01,2013-11-18 05:51:00,
2013-11-17 23:56:00,31.2,24.5,29.87,West,277,7.0,21.0,76,0.00,,,0.01,VWS V14.01,2013-11-18 05:56:00,